EWG445 EDDH-EDDS

Flight info

Callsign EWG445
Flight time 0h 57m
Altitude 35000
Route IDEKO7G/33 IDEKO N850 NIE DCT BERXO DCT SILWE DCT OSBIT P605 TOSTU T726 LBU
Aircraft A319/M-SDE3FGHIRWY/LB1

Departure

Time 2026-05-07 19:31
Airport Hamburg Helmut Schmidt Airport (EDDH)

Arrival

Time 2026-05-07 20:28
Airport Stuttgart Airport (EDDS)
Time Latitude Longitude Altitude Speed Heading
2026-05-07 18:52 53.63292 10.00364 49 ft 0 kts 87°
2026-05-07 18:58 53.63292 10.00363 49 ft 0 kts 87°
2026-05-07 19:21 53.63292 10.00341 48 ft 4 kts 87°
2026-05-07 19:22 53.63290 10.00296 48 ft 4 kts 87°
2026-05-07 19:22 53.63289 10.00254 48 ft 1 kts 87°
2026-05-07 19:22 53.63289 10.00215 48 ft 4 kts 101°
2026-05-07 19:22 53.63298 10.00177 48 ft 4 kts 146°
2026-05-07 19:23 53.63310 10.00168 43 ft 0 kts 176°
2026-05-07 19:25 53.63294 10.00170 48 ft 4 kts 176°
2026-05-07 19:25 53.63249 10.00175 48 ft 8 kts 176°
2026-05-07 19:25 53.63190 10.00182 48 ft 5 kts 175°
2026-05-07 19:26 53.63159 10.00186 47 ft 2 kts 175°
2026-05-07 19:26 53.63133 10.00189 48 ft 5 kts 175°
2026-05-07 19:26 53.63092 10.00193 46 ft 7 kts 181°
2026-05-07 19:26 53.63041 10.00154 48 ft 9 kts 212°
2026-05-07 19:27 53.62987 10.00096 47 ft 10 kts 212°
2026-05-07 19:27 53.62934 10.00031 48 ft 8 kts 227°
2026-05-07 19:27 53.62907 9.99950 45 ft 6 kts 243°
2026-05-07 19:27 53.62899 9.99921 48 ft 0 kts 243°
2026-05-07 19:28 53.62897 9.99916 48 ft 2 kts 243°
2026-05-07 19:28 53.62878 9.99849 47 ft 11 kts 244°
2026-05-07 19:28 53.62881 9.99734 44 ft 11 kts 320°
2026-05-07 19:28 53.62902 9.99715 45 ft 0 kts 334°
2026-05-07 19:30 53.62928 9.99693 45 ft 20 kts 333°
2026-05-07 19:30 53.63237 9.99426 46 ft 80 kts 333°
2026-05-07 19:30 53.63904 9.98849 50 ft 134 kts 333°
2026-05-07 19:30 53.64859 9.98020 219 ft 165 kts 334°
2026-05-07 19:31 53.65883 9.97162 871 ft 166 kts 337°
2026-05-07 19:31 53.66931 9.96285 1479 ft 172 kts 337°
2026-05-07 19:31 53.68059 9.95321 1840 ft 193 kts 337°
2026-05-07 19:31 53.69331 9.94234 2168 ft 217 kts 336°
2026-05-07 19:32 53.70656 9.92989 2938 ft 225 kts 323°
2026-05-07 19:32 53.71501 9.90770 3755 ft 234 kts 282°
2026-05-07 19:32 53.71449 9.87912 4241 ft 258 kts 256°
2026-05-07 19:32 53.70929 9.84914 4826 ft 272 kts 249°
2026-05-07 19:33 53.70267 9.81913 4984 ft 273 kts 248°
2026-05-07 19:33 53.69578 9.78920 5003 ft 274 kts 248°
2026-05-07 19:33 53.68901 9.75898 5120 ft 281 kts 249°
2026-05-07 19:33 53.68235 9.72791 6103 ft 280 kts 250°
2026-05-07 19:34 53.67595 9.69691 7105 ft 281 kts 251°
2026-05-07 19:34 53.66959 9.66548 8047 ft 284 kts 251°
2026-05-07 19:34 53.66306 9.63403 9017 ft 286 kts 246°
2026-05-07 19:34 53.65241 9.60547 9808 ft 292 kts 228°
2026-05-07 19:35 53.63680 9.58392 10061 ft 291 kts 208°
2026-05-07 19:35 53.61744 9.57233 10127 ft 309 kts 188°
2026-05-07 19:35 53.59556 9.56800 10137 ft 322 kts 185°
2026-05-07 19:35 53.57296 9.56377 10723 ft 328 kts 186°
2026-05-07 19:36 53.55019 9.55937 11542 ft 330 kts 186°
2026-05-07 19:36 53.52727 9.55485 12333 ft 333 kts 187°
2026-05-07 19:36 53.50408 9.55023 13115 ft 337 kts 187°
2026-05-07 19:36 53.48069 9.54557 13889 ft 341 kts 187°
2026-05-07 19:37 53.45703 9.54085 14567 ft 344 kts 187°
2026-05-07 19:37 53.43346 9.53615 15213 ft 347 kts 187°
2026-05-07 19:37 53.40904 9.53130 15892 ft 351 kts 187°
2026-05-07 19:37 53.38469 9.52648 16554 ft 354 kts 187°
2026-05-07 19:38 53.36006 9.52165 17234 ft 357 kts 187°
2026-05-07 19:38 53.33527 9.51681 17906 ft 361 kts 187°
2026-05-07 19:38 53.31021 9.51193 18549 ft 364 kts 187°
2026-05-07 19:38 53.28493 9.50701 19127 ft 367 kts 187°
2026-05-07 19:39 53.25946 9.50206 19712 ft 370 kts 187°
2026-05-07 19:39 53.23377 9.49702 20299 ft 373 kts 187°
2026-05-07 19:39 53.20788 9.49194 20885 ft 376 kts 187°
2026-05-07 19:39 53.19063 9.48858 21268 ft 378 kts 187°
2026-05-07 19:40 53.15547 9.48180 22030 ft 382 kts 188°
2026-05-07 19:40 53.12928 9.47675 22582 ft 385 kts 188°
2026-05-07 19:40 53.10255 9.47159 23143 ft 388 kts 188°
2026-05-07 19:40 53.07559 9.46637 23694 ft 392 kts 188°
2026-05-07 19:41 53.04844 9.46108 24016 ft 394 kts 188°
2026-05-07 19:41 53.02122 9.45577 24095 ft 394 kts 188°
2026-05-07 19:41 52.99397 9.45047 24112 ft 394 kts 188°
2026-05-07 19:41 52.96678 9.44502 24112 ft 394 kts 188°
2026-05-07 19:42 52.93963 9.43927 24114 ft 394 kts 188°
2026-05-07 19:42 52.91246 9.43335 24113 ft 394 kts 189°
2026-05-07 19:42 52.88527 9.42738 24114 ft 394 kts 189°
2026-05-07 19:42 52.85814 9.42144 24112 ft 393 kts 188°
2026-05-07 19:43 52.83098 9.41558 24111 ft 393 kts 188°
2026-05-07 19:43 52.80385 9.40981 24112 ft 393 kts 188°
2026-05-07 19:43 52.77668 9.40410 24111 ft 393 kts 188°
2026-05-07 19:43 52.74955 9.39839 24110 ft 393 kts 188°
2026-05-07 19:44 52.72238 9.39265 24113 ft 393 kts 188°
2026-05-07 19:44 52.69524 9.38691 24113 ft 393 kts 188°
2026-05-07 19:44 52.66809 9.38114 24112 ft 393 kts 188°
2026-05-07 19:44 52.64124 9.37626 24112 ft 394 kts 184°
2026-05-07 19:45 52.61382 9.37793 24110 ft 395 kts 174°
2026-05-07 19:45 52.58682 9.38677 24112 ft 396 kts 168°
2026-05-07 19:45 52.55980 9.39700 24404 ft 399 kts 168°
2026-05-07 19:45 52.53266 9.40720 24842 ft 401 kts 168°
2026-05-07 19:46 52.50532 9.41743 25284 ft 404 kts 168°
2026-05-07 19:46 52.47788 9.42764 25722 ft 406 kts 168°
2026-05-07 19:46 52.45020 9.43791 26160 ft 409 kts 168°
2026-05-07 19:46 52.42237 9.44824 26599 ft 411 kts 168°
2026-05-07 19:47 52.39436 9.45866 27029 ft 414 kts 168°
2026-05-07 19:47 52.36617 9.46916 27459 ft 417 kts 168°
2026-05-07 19:47 52.33780 9.47972 27894 ft 419 kts 168°
2026-05-07 19:47 52.30927 9.49033 28327 ft 422 kts 168°
2026-05-07 19:48 52.28056 9.50098 28741 ft 425 kts 168°
2026-05-07 19:48 52.26144 9.50806 29028 ft 426 kts 168°
2026-05-07 19:48 52.23238 9.51882 29435 ft 429 kts 168°
2026-05-07 19:48 52.20318 9.52957 29843 ft 432 kts 168°
2026-05-07 19:49 52.17376 9.54038 30239 ft 435 kts 168°
2026-05-07 19:49 52.14420 9.55122 30569 ft 437 kts 168°
2026-05-07 19:49 52.11442 9.56214 30877 ft 440 kts 168°
2026-05-07 19:49 52.08449 9.57311 31186 ft 442 kts 168°
2026-05-07 19:50 52.05436 9.58416 31494 ft 445 kts 168°
2026-05-07 19:50 52.02414 9.59525 31808 ft 446 kts 168°
2026-05-07 19:50 51.99389 9.60634 32242 ft 446 kts 168°
2026-05-07 19:50 51.96366 9.61742 32692 ft 445 kts 168°
2026-05-07 19:51 51.93355 9.62843 33134 ft 444 kts 168°
2026-05-07 19:51 51.90338 9.63942 33573 ft 443 kts 168°
2026-05-07 19:51 51.87334 9.65031 34003 ft 443 kts 168°
2026-05-07 19:51 51.84329 9.66121 34383 ft 442 kts 168°
2026-05-07 19:52 51.81329 9.67206 34735 ft 442 kts 168°
2026-05-07 19:52 51.78367 9.68275 35023 ft 442 kts 168°
2026-05-07 19:52 51.72406 9.70423 35115 ft 435 kts 168°
2026-05-07 19:53 51.66510 9.72550 35114 ft 434 kts 168°
2026-05-07 19:53 51.60610 9.74678 35114 ft 435 kts 168°
2026-05-07 19:54 51.54706 9.76791 35109 ft 435 kts 168°
2026-05-07 19:54 51.48801 9.78905 35108 ft 435 kts 168°
2026-05-07 19:55 51.42899 9.81013 35110 ft 434 kts 168°
2026-05-07 19:55 51.36996 9.83111 35097 ft 434 kts 169°
2026-05-07 19:56 51.31094 9.85201 35095 ft 434 kts 169°
2026-05-07 19:56 51.25192 9.87279 35091 ft 434 kts 169°
2026-05-07 19:57 51.19205 9.87954 35095 ft 431 kts 185°
2026-05-07 19:57 51.13251 9.87411 35087 ft 432 kts 185°
2026-05-07 19:58 51.07247 9.86872 35091 ft 432 kts 185°
2026-05-07 19:58 51.01247 9.86353 35093 ft 432 kts 185°
2026-05-07 19:59 50.95247 9.85841 35091 ft 432 kts 185°
2026-05-07 19:59 50.89252 9.85329 35087 ft 432 kts 185°
2026-05-07 20:00 50.83254 9.84809 35089 ft 432 kts 185°
2026-05-07 20:00 50.77248 9.84295 35092 ft 432 kts 185°
2026-05-07 20:01 50.71238 9.83774 35092 ft 432 kts 185°
2026-05-07 20:01 50.65229 9.83247 35102 ft 433 kts 185°
2026-05-07 20:02 50.59222 9.82722 35103 ft 432 kts 185°
2026-05-07 20:02 50.53213 9.82210 35101 ft 433 kts 185°
2026-05-07 20:03 50.50243 9.81962 34787 ft 433 kts 185°
2026-05-07 20:03 50.47220 9.81707 34201 ft 436 kts 185°
2026-05-07 20:03 50.44188 9.81452 33509 ft 437 kts 185°
2026-05-07 20:03 50.41150 9.81196 32828 ft 438 kts 185°
2026-05-07 20:04 50.38104 9.80939 32171 ft 438 kts 185°
2026-05-07 20:04 50.35093 9.80684 31847 ft 426 kts 185°
2026-05-07 20:04 50.32182 9.80439 31584 ft 413 kts 185°
2026-05-07 20:04 50.29363 9.80202 31281 ft 399 kts 185°
2026-05-07 20:05 50.26624 9.79970 30807 ft 390 kts 185°
2026-05-07 20:05 50.23922 9.79741 30436 ft 387 kts 185°
2026-05-07 20:05 50.21240 9.79512 30018 ft 386 kts 185°
2026-05-07 20:05 50.18570 9.79284 29605 ft 383 kts 185°
2026-05-07 20:06 50.15917 9.79061 29219 ft 381 kts 185°
2026-05-07 20:06 50.13278 9.78840 28834 ft 378 kts 185°
2026-05-07 20:06 50.10662 9.78620 28461 ft 375 kts 185°
2026-05-07 20:06 50.08065 9.78402 28083 ft 372 kts 185°
2026-05-07 20:07 50.05484 9.78407 27716 ft 370 kts 179°
2026-05-07 20:07 50.02923 9.78581 27344 ft 367 kts 179°
2026-05-07 20:07 50.00384 9.78746 26962 ft 364 kts 180°
2026-05-07 20:07 49.97865 9.78904 26599 ft 360 kts 180°
2026-05-07 20:08 49.95369 9.79061 26235 ft 358 kts 179°
2026-05-07 20:08 49.92893 9.79219 25868 ft 355 kts 179°
2026-05-07 20:08 49.90435 9.79376 25486 ft 353 kts 180°
2026-05-07 20:08 49.87990 9.79533 25101 ft 351 kts 179°
2026-05-07 20:09 49.85591 9.79687 24729 ft 349 kts 179°
2026-05-07 20:09 49.83169 9.79845 24335 ft 348 kts 179°
2026-05-07 20:09 49.80756 9.80001 23942 ft 347 kts 179°
2026-05-07 20:10 49.75952 9.80302 23113 ft 343 kts 180°
2026-05-07 20:10 49.73574 9.80450 22720 ft 341 kts 180°
2026-05-07 20:10 49.71212 9.80599 22324 ft 338 kts 180°
2026-05-07 20:10 49.68872 9.80734 21936 ft 336 kts 180°
2026-05-07 20:11 49.66547 9.80845 21529 ft 334 kts 180°
2026-05-07 20:11 49.64231 9.80946 21154 ft 332 kts 181°
2026-05-07 20:11 49.61930 9.81044 20775 ft 330 kts 181°
2026-05-07 20:11 49.59645 9.81393 20387 ft 330 kts 172°
2026-05-07 20:12 49.57385 9.82017 20001 ft 330 kts 172°
2026-05-07 20:12 49.55131 9.82639 19599 ft 329 kts 172°
2026-05-07 20:12 49.52886 9.83262 19222 ft 327 kts 172°
2026-05-07 20:12 49.50649 9.83885 18841 ft 326 kts 172°
2026-05-07 20:13 49.48418 9.84506 18454 ft 326 kts 172°
2026-05-07 20:13 49.46188 9.85124 18032 ft 325 kts 172°
2026-05-07 20:13 49.43974 9.85736 17639 ft 323 kts 172°
2026-05-07 20:13 49.41771 9.86348 17254 ft 320 kts 172°
2026-05-07 20:14 49.39585 9.86955 16869 ft 318 kts 172°
2026-05-07 20:14 49.37411 9.87558 16496 ft 317 kts 172°
2026-05-07 20:14 49.35248 9.88153 16124 ft 315 kts 172°
2026-05-07 20:14 49.33093 9.88739 15750 ft 314 kts 172°
2026-05-07 20:15 49.30948 9.89325 15368 ft 312 kts 172°
2026-05-07 20:15 49.28813 9.89914 15008 ft 311 kts 172°
2026-05-07 20:15 49.26688 9.90499 14642 ft 310 kts 171°
2026-05-07 20:15 49.24593 9.91072 14277 ft 309 kts 171°
2026-05-07 20:16 49.22479 9.91647 13906 ft 308 kts 171°
2026-05-07 20:16 49.20342 9.92228 13509 ft 307 kts 171°
2026-05-07 20:16 49.18259 9.92581 13145 ft 304 kts 182°
2026-05-07 20:16 49.16188 9.92162 12791 ft 299 kts 197°
2026-05-07 20:17 49.14273 9.91003 12436 ft 294 kts 211°
2026-05-07 20:17 49.12528 9.89396 12084 ft 292 kts 213°
2026-05-07 20:17 49.10798 9.87792 11741 ft 290 kts 213°
2026-05-07 20:17 49.09080 9.86204 11386 ft 288 kts 213°
2026-05-07 20:18 49.07371 9.84627 11049 ft 286 kts 213°
2026-05-07 20:18 49.05675 9.83062 10707 ft 284 kts 213°
2026-05-07 20:18 49.03985 9.81501 10355 ft 283 kts 213°
2026-05-07 20:18 49.02310 9.79957 10027 ft 281 kts 213°
2026-05-07 20:19 49.00634 9.78414 9662 ft 281 kts 213°
2026-05-07 20:19 48.98967 9.76881 9317 ft 279 kts 213°
2026-05-07 20:19 48.97308 9.75356 8972 ft 277 kts 213°
2026-05-07 20:19 48.95660 9.73845 8650 ft 276 kts 213°
2026-05-07 20:20 48.94019 9.72340 8319 ft 275 kts 212°
2026-05-07 20:20 48.92398 9.70856 7998 ft 274 kts 212°
2026-05-07 20:20 48.90773 9.69366 7671 ft 273 kts 213°
2026-05-07 20:20 48.89151 9.67878 7339 ft 271 kts 213°
2026-05-07 20:21 48.87561 9.66422 7038 ft 271 kts 212°
2026-05-07 20:21 48.85949 9.64948 6706 ft 270 kts 212°
2026-05-07 20:21 48.84341 9.63479 6373 ft 269 kts 212°
2026-05-07 20:21 48.82737 9.62015 6031 ft 269 kts 212°
2026-05-07 20:22 48.81140 9.60555 5765 ft 265 kts 212°
2026-05-07 20:22 48.79597 9.59146 5700 ft 254 kts 212°
2026-05-07 20:22 48.78112 9.57792 5590 ft 244 kts 212°
2026-05-07 20:22 48.76685 9.56493 5487 ft 234 kts 212°
2026-05-07 20:23 48.75449 9.54992 5372 ft 223 kts 232°
2026-05-07 20:23 48.74749 9.52951 5074 ft 216 kts 254°
2026-05-07 20:23 48.74354 9.50823 4802 ft 204 kts 255°
2026-05-07 20:23 48.73988 9.48829 4533 ft 191 kts 255°
2026-05-07 20:24 48.73640 9.46957 4278 ft 179 kts 255°
2026-05-07 20:24 48.73312 9.45197 4038 ft 168 kts 255°
2026-05-07 20:24 48.73002 9.43538 3824 ft 158 kts 255°
2026-05-07 20:24 48.72709 9.41972 3608 ft 152 kts 255°
2026-05-07 20:25 48.72426 9.40461 3416 ft 144 kts 255°
2026-05-07 20:25 48.72157 9.39028 3220 ft 139 kts 255°
2026-05-07 20:25 48.71894 9.37625 3029 ft 138 kts 255°
2026-05-07 20:25 48.71633 9.36237 2844 ft 137 kts 255°
2026-05-07 20:26 48.71378 9.34869 2691 ft 137 kts 254°
2026-05-07 20:26 48.71119 9.33485 2519 ft 137 kts 255°
2026-05-07 20:26 48.70860 9.32101 2328 ft 137 kts 255°
2026-05-07 20:26 48.70598 9.30722 2122 ft 136 kts 254°
2026-05-07 20:27 48.70337 9.29344 1894 ft 136 kts 254°
2026-05-07 20:27 48.70079 9.27964 1719 ft 136 kts 255°
2026-05-07 20:27 48.69815 9.26586 1526 ft 136 kts 254°
2026-05-07 20:27 48.69555 9.25216 1367 ft 135 kts 255°
2026-05-07 20:28 48.69302 9.23856 1203 ft 127 kts 256°
2026-05-07 20:28 48.69123 9.22915 1219 ft 51 kts 254°
2026-05-07 20:28 48.69087 9.22719 1222 ft 16 kts 255°
2026-05-07 20:28 48.69005 9.22284 1233 ft 58 kts 254°
2026-05-07 20:29 48.68942 9.21856 1244 ft 37 kts 267°
2026-05-07 20:29 48.68971 9.21563 1255 ft 13 kts 283°
2026-05-07 20:29 48.68975 9.21539 1253 ft 0 kts 283°
2026-05-07 20:30 48.68979 9.21514 1260 ft 5 kts 284°
2026-05-07 20:30 48.68992 9.21440 1263 ft 10 kts 285°
2026-05-07 20:30 48.68994 9.21307 1264 ft 16 kts 255°
2026-05-07 20:31 48.68957 9.21110 1268 ft 23 kts 254°
2026-05-07 20:31 48.68922 9.20921 1270 ft 22 kts 253°
2026-05-07 20:31 48.68881 9.20707 1275 ft 22 kts 254°
2026-05-07 20:31 48.68841 9.20501 1280 ft 24 kts 254°
2026-05-07 20:32 48.68813 9.20346 1284 ft 0 kts 254°
2026-05-07 20:33 48.68813 9.20345 1284 ft 1 kts 254°
2026-05-07 20:33 48.68808 9.20319 1284 ft 6 kts 255°
2026-05-07 20:33 48.68789 9.20217 1286 ft 14 kts 253°
2026-05-07 20:33 48.68758 9.20059 1290 ft 13 kts 259°
2026-05-07 20:34 48.68800 9.19941 1296 ft 13 kts 313°
2026-05-07 20:34 48.68876 9.19877 1302 ft 11 kts 334°
2026-05-07 20:34 48.68879 9.19767 1306 ft 12 kts 253°
2026-05-07 20:34 48.68853 9.19623 1309 ft 14 kts 253°
2026-05-07 20:35 48.68829 9.19498 1312 ft 9 kts 254°
2026-05-07 20:35 48.68851 9.19447 1314 ft 7 kts 339°
2026-05-07 20:35 48.68879 9.19436 1315 ft 4 kts 344°
2026-05-07 20:35 48.68895 9.19429 1315 ft 0 kts 344°
2026-05-07 20:36 48.68898 9.19427 1315 ft 0 kts 344°